When you browse on this site, cookies collect data to enhance your experience and personalize the content and advertising you see.
Visit our Privacy Policy to learn more. By continuing to use the site, you agree to this use of cookies and data.
  • En España
  • Lista de países
  • Para 7 días
  • Temperatura del agua
  • Mapa Satelital
  • El tiempo en el mapa
  • Informadores
  • user-avatar
    Iniciar sesión

    Tiempo cada hora Krupets'

    Hoy, 23 Mayo, Jueves

    Tiempo Temperatura Precipitaciones Viento Presión Humedad
    00:00 +13°C° 0 mm 1 mps 737 mmHg 88%
    01:00 +12°C° 0 mm 0 mps 737 mmHg 89%
    02:00 +11°C° 0 mm 0 mps 737 mmHg 89%
    03:00 +11°C° 0 mm 0 mps 737 mmHg 88%
    04:00 +11°C° 0 mm 0 mps 737 mmHg 88%
    05:00 +12°C° 0 mm 0 mps 737 mmHg 88%
    06:00 +13°C° 0 mm 0 mps 738 mmHg 83%
    07:00 +15°C° 0 mm 0 mps 738 mmHg 78%
    08:00 +19°C° 0 mm 1 mps 738 mmHg 73%
    09:00 +20°C° 0 mm 1 mps 738 mmHg 68%
    10:00 +21°C° 0 mm 1 mps 738 mmHg 64%
    11:00 +22°C° 0 mm 1 mps 738 mmHg 59%
    12:00 +23°C° 0.3 mm 1 mps 738 mmHg 58%
    13:00 +24°C° 0.3 mm 1 mps 738 mmHg 57%
    14:00 +24°C° 0.3 mm 1 mps 738 mmHg 56%
    15:00 +24°C° 0.3 mm 1 mps 738 mmHg 57%
    16:00 +24°C° 0.3 mm 1 mps 737 mmHg 58%
    17:00 +24°C° 0.3 mm 1 mps 737 mmHg 59%
    18:00 +22°C° 0.9 mm 1 mps 737 mmHg 65%
    19:00 +20°C° 0.9 mm 1 mps 737 mmHg 72%
    20:00 +18°C° 0.9 mm 1 mps 737 mmHg 79%
    21:00 +18°C° 0 mm 1 mps 737 mmHg 81%
    22:00 +16°C° 0 mm 1 mps 737 mmHg 83%
    23:00 +16°C° 0 mm 1 mps 737 mmHg 85%

    Mañana, 24 Mayo, Viernes

    Tiempo Temperatura Precipitaciones Viento Presión Humedad
    00:00 +15°C° 0.2 mm 1 mps 737 mmHg 87%
    01:00 +15°C° 0.2 mm 1 mps 737 mmHg 88%
    02:00 +14°C° 0.2 mm 1 mps 738 mmHg 90%
    03:00 +14°C° 0.2 mm 1 mps 737 mmHg 90%
    04:00 +14°C° 0.2 mm 1 mps 737 mmHg 91%
    05:00 +14°C° 0.2 mm 1 mps 737 mmHg 92%
    06:00 +15°C° 0.5 mm 1 mps 738 mmHg 90%
    07:00 +16°C° 0.5 mm 1 mps 738 mmHg 88%
    08:00 +18°C° 0.5 mm 1 mps 738 mmHg 86%
    09:00 +19°C° 0.2 mm 1 mps 738 mmHg 82%
    10:00 +20°C° 0.2 mm 1 mps 738 mmHg 78%
    11:00 +21°C° 0.2 mm 1 mps 738 mmHg 74%
    12:00 +21°C° 1.9 mm 1 mps 738 mmHg 78%
    13:00 +19°C° 1.9 mm 2 mps 738 mmHg 82%
    14:00 +19°C° 1.9 mm 2 mps 737 mmHg 85%
    15:00 +19°C° 0.3 mm 3 mps 737 mmHg 84%
    16:00 +19°C° 0.3 mm 3 mps 737 mmHg 82%
    17:00 +19°C° 0.3 mm 4 mps 737 mmHg 80%
    18:00 +18°C° 0.1 mm 3 mps 737 mmHg 84%
    19:00 +17°C° 0.1 mm 3 mps 737 mmHg 88%
    20:00 +16°C° 0.1 mm 2 mps 737 mmHg 92%
    21:00 +15°C° 0 mm 2 mps 737 mmHg 93%
    22:00 +15°C° 0 mm 2 mps 737 mmHg 94%
    23:00 +14°C° 0 mm 2 mps 737 mmHg 95%

    Pasado mañana, 25 Mayo, Sábado

    Tiempo Temperatura Precipitaciones Viento Presión Humedad
    00:00 +14°C° 0 mm 2 mps 736 mmHg 95%
    01:00 +14°C° 0 mm 2 mps 736 mmHg 95%
    02:00 +14°C° 0 mm 2 mps 736 mmHg 96%
    03:00 +14°C° 0 mm 2 mps 736 mmHg 96%
    04:00 +14°C° 0 mm 2 mps 736 mmHg 96%
    05:00 +14°C° 0 mm 2 mps 736 mmHg 96%
    06:00 +14°C° 0.1 mm 3 mps 736 mmHg 94%
    07:00 +16°C° 0.1 mm 3 mps 737 mmHg 91%
    08:00 +18°C° 0.1 mm 4 mps 737 mmHg 88%
    09:00 +18°C° 0.6 mm 4 mps 737 mmHg 86%
    10:00 +19°C° 0.6 mm 5 mps 737 mmHg 84%
    11:00 +20°C° 0.6 mm 5 mps 737 mmHg 83%
    12:00 +20°C° 0.9 mm 5 mps 737 mmHg 81%
    13:00 +20°C° 0.9 mm 5 mps 737 mmHg 79%
    14:00 +21°C° 0.9 mm 5 mps 737 mmHg 78%
    15:00 +21°C° 0.6 mm 5 mps 737 mmHg 77%
    16:00 +21°C° 0.6 mm 5 mps 737 mmHg 76%
    17:00 +20°C° 0.6 mm 4 mps 737 mmHg 75%
    18:00 +19°C° 0 mm 4 mps 737 mmHg 78%
    19:00 +18°C° 0 mm 3 mps 737 mmHg 81%
    20:00 +16°C° 0 mm 3 mps 737 mmHg 84%
    21:00 +14°C° 0 mm 3 mps 737 mmHg 86%
    22:00 +14°C° 0 mm 3 mps 738 mmHg 88%
    23:00 +13°C° 0 mm 3 mps 738 mmHg 91%

    26 Mayo, Domingo

    Tiempo Temperatura Precipitaciones Viento Presión Humedad
    00:00 +12°C° 0 mm 3 mps 738 mmHg 92%
    01:00 +12°C° 0 mm 3 mps 738 mmHg 92%
    02:00 +12°C° 0 mm 3 mps 738 mmHg 93%
    03:00 +12°C° 0 mm 3 mps 738 mmHg 94%
    04:00 +11°C° 0 mm 3 mps 738 mmHg 95%
    05:00 +12°C° 0 mm 2 mps 738 mmHg 96%
    06:00 +12°C° 0 mm 3 mps 738 mmHg 90%
    07:00 +14°C° 0 mm 3 mps 738 mmHg 84%
    08:00 +16°C° 0 mm 3 mps 738 mmHg 79%
    09:00 +18°C° 0 mm 3 mps 738 mmHg 73%
    10:00 +19°C° 0 mm 4 mps 738 mmHg 67%
    11:00 +20°C° 0 mm 4 mps 738 mmHg 62%
    12:00 +20°C° 0.2 mm 4 mps 738 mmHg 63%
    13:00 +21°C° 0.2 mm 4 mps 738 mmHg 64%
    14:00 +21°C° 0.2 mm 5 mps 738 mmHg 65%
    15:00 +21°C° 1 mm 5 mps 737 mmHg 70%
    16:00 +20°C° 1 mm 5 mps 737 mmHg 75%
    17:00 +19°C° 1 mm 5 mps 737 mmHg 80%
    18:00 +17°C° 0.2 mm 5 mps 738 mmHg 83%
    19:00 +15°C° 0.2 mm 4 mps 738 mmHg 85%
    20:00 +14°C° 0.2 mm 4 mps 738 mmHg 87%
    21:00 +13°C° 0.1 mm 4 mps 738 mmHg 87%
    22:00 +11°C° 0.1 mm 3 mps 739 mmHg 87%
    23:00 +10°C° 0.1 mm 3 mps 739 mmHg 87%

    27 Mayo, Lunes

    Tiempo Temperatura Precipitaciones Viento Presión Humedad
    00:00 +10°C° 0 mm 3 mps 740 mmHg 88%
    01:00 +9°C° 0 mm 3 mps 740 mmHg 90%
    02:00 +8°C° 0 mm 3 mps 740 mmHg 92%
    03:00 +8°C° 0 mm 3 mps 740 mmHg 92%
    04:00 +8°C° 0 mm 3 mps 741 mmHg 93%
    05:00 +7°C° 0 mm 3 mps 741 mmHg 94%
    06:00 +9°C° 0 mm 3 mps 741 mmHg 87%
    07:00 +11°C° 0 mm 3 mps 741 mmHg 81%
    08:00 +12°C° 0 mm 4 mps 742 mmHg 75%
    09:00 +13°C° 0 mm 4 mps 742 mmHg 69%
    10:00 +15°C° 0 mm 4 mps 742 mmHg 63%
    11:00 +17°C° 0 mm 3 mps 742 mmHg 57%
    12:00 +18°C° 0 mm 3 mps 742 mmHg 54%
    13:00 +19°C° 0 mm 3 mps 742 mmHg 52%
    14:00 +20°C° 0 mm 3 mps 742 mmHg 50%
    15:00 +20°C° 0 mm 3 mps 741 mmHg 52%
    16:00 +20°C° 0 mm 2 mps 741 mmHg 55%
    17:00 +20°C° 0 mm 2 mps 741 mmHg 57%
    18:00 +19°C° 0 mm 2 mps 741 mmHg 65%
    19:00 +17°C° 0 mm 2 mps 741 mmHg 73%
    20:00 +16°C° 0 mm 2 mps 740 mmHg 81%
    21:00 +16°C° 0 mm 3 mps 740 mmHg 84%
    22:00 +14°C° 0 mm 3 mps 740 mmHg 86%
    23:00 +14°C° 0 mm 3 mps 740 mmHg 88%

    28 Mayo, Martes

    Tiempo Temperatura Precipitaciones Viento Presión Humedad
    00:00 +14°C° 0.2 mm 4 mps 740 mmHg 88%
    01:00 +14°C° 0.2 mm 4 mps 739 mmHg 89%
    02:00 +15°C° 0.2 mm 4 mps 739 mmHg 89%
    03:00 +15°C° 2.4 mm 4 mps 738 mmHg 91%
    04:00 +15°C° 2.4 mm 4 mps 738 mmHg 93%
    05:00 +15°C° 2.4 mm 4 mps 737 mmHg 95%
    06:00 +15°C° 3.2 mm 5 mps 737 mmHg 94%
    07:00 +16°C° 3.2 mm 5 mps 737 mmHg 93%
    08:00 +16°C° 3.2 mm 6 mps 736 mmHg 92%
    09:00 +19°C° 0.1 mm 6 mps 736 mmHg 85%
    10:00 +21°C° 0.1 mm 6 mps 736 mmHg 79%
    11:00 +23°C° 0.1 mm 7 mps 736 mmHg 72%
    12:00 +24°C° 0.1 mm 7 mps 736 mmHg 70%
    13:00 +24°C° 0.1 mm 6 mps 736 mmHg 68%
    14:00 +26°C° 0.1 mm 6 mps 735 mmHg 66%
    15:00 +26°C° 0.4 mm 5 mps 735 mmHg 70%
    16:00 +25°C° 0.4 mm 4 mps 735 mmHg 74%
    17:00 +25°C° 0.4 mm 3 mps 735 mmHg 78%
    18:00 +22°C° 0.9 mm 3 mps 735 mmHg 80%
    19:00 +21°C° 0.9 mm 2 mps 735 mmHg 83%
    20:00 +20°C° 0.9 mm 2 mps 735 mmHg 85%
    21:00 +19°C° 0 mm 2 mps 735 mmHg 87%
    22:00 +19°C° 0 mm 3 mps 735 mmHg 90%
    23:00 +18°C° 0 mm 3 mps 735 mmHg 92%
    Mostrar más